owner,sensor,date,latitude,longitude,vertical_datum,sea_water_practical_salinity,qcFlag 
DISL,ioos:station:DISL:MHPA:1,2011-07-01T00:00:00Z,30.6671,-87.9365,3.23,1.56,1111122 
DISL,ioos:station:DISL:MHPA:1,2011-07-01T00:30:00Z,30.6671,-87.9365,3.149,1.53,1111122 
DISL,ioos:station:DISL:MHPA:1,2011-07-01T01:00:00Z,30.6671,-87.9365,3.052,1.53,1111122 
DISL,ioos:station:DISL:MHPA:1,2011-07-01T01:30:00Z,30.6671,-87.9365,2.973,1.5,1111122 
DISL,ioos:station:DISL:MHPA:1,2011-07-01T02:00:00Z,30.6671,-87.9365,2.879,1.46,1111122 
DISL,ioos:station:DISL:MHPA:1,2011-07-01T02:30:00Z,30.6671,-87.9365,2.786,1.5,1111122 
DISL,ioos:station:DISL:MHPA:1,2011-07-01T03:00:00Z,30.6671,-87.9365,2.712,1.54,1111122 
DISL,ioos:station:DISL:MHPA:1,2011-07-01T03:30:00Z,30.6671,-87.9365,2.66,1.54,1111122 
DISL,ioos:station:DISL:MHPA:1,2011-07-01T04:00:00Z,30.6671,-87.9365,2.617,1.54,1111122 
DISL,ioos:station:DISL:MHPA:1,2011-07-01T04:30:00Z,30.6671,-87.9365,2.574,1.52,1111122 
DISL,ioos:station:DISL:MHPA:1,2011-07-01T05:00:00Z,30.6671,-87.9365,2.55,1.52,1111122 
DISL,ioos:station:DISL:MHPA:1,2011-07-01T05:30:00Z,30.6671,-87.9365,2.564,1.52,1111122 
DISL,ioos:station:DISL:MHPA:1,2011-07-01T06:00:00Z,30.6671,-87.9365,2.61,1.48,1111122 
DISL,ioos:station:DISL:MHPA:1,2011-07-01T06:30:00Z,30.6671,-87.9365,2.639,1.5,1111122 
DISL,ioos:station:DISL:MHPA:1,2011-07-01T07:00:00Z,30.6671,-87.9365,2.675,1.51,1111122 
DISL,ioos:station:DISL:MHPA:1,2011-07-01T07:30:00Z,30.6671,-87.9365,2.773,1.51,1111122 
DISL,ioos:station:DISL:MHPA:1,2011-07-01T08:00:00Z,30.6671,-87.9365,2.882,1.51,1111122 
DISL,ioos:station:DISL:MHPA:1,2011-07-01T08:30:00Z,30.6671,-87.9365,3.003,1.49,1111122 
DISL,ioos:station:DISL:MHPA:1,2011-07-01T09:00:00Z,30.6671,-87.9365,3.164,1.5,1111122 
DISL,ioos:station:DISL:MHPA:1,2011-07-01T09:30:00Z,30.6671,-87.9365,3.294,1.53,1111122 
DISL,ioos:station:DISL:MHPA:1,2011-07-01T10:00:00Z,30.6671,-87.9365,3.352,1.55,1111122 
DISL,ioos:station:DISL:MHPA:1,2011-07-01T10:30:00Z,30.6671,-87.9365,3.424,1.55,1111122 
DISL,ioos:station:DISL:MHPA:1,2011-07-01T11:00:00Z,30.6671,-87.9365,3.558,1.56,1111122 
DISL,ioos:station:DISL:MHPA:1,2011-07-01T11:30:00Z,30.6671,-87.9365,3.669,1.55,1111122 
DISL,ioos:station:DISL:MHPA:1,2011-07-01T12:00:00Z,30.6671,-87.9365,3.697,1.53,1111122 
DISL,ioos:station:DISL:MHPA:1,2011-07-01T12:30:00Z,30.6671,-87.9365,3.74,1.53,1111122 
DISL,ioos:station:DISL:MHPA:1,2011-07-01T13:00:00Z,30.6671,-87.9365,3.863,1.56,1111122 
DISL,ioos:station:DISL:MHPA:1,2011-07-01T13:30:00Z,30.6671,-87.9365,3.992,1.56,1111122 
DISL,ioos:station:DISL:MHPA:1,2011-07-01T14:00:00Z,30.6671,-87.9365,4.126,1.53,1111122 
DISL,ioos:station:DISL:MHPA:1,2011-07-01T14:30:00Z,30.6671,-87.9365,4.269,1.54,1111122 
DISL,ioos:station:DISL:MHPA:1,2011-07-01T15:00:00Z,30.6671,-87.9365,4.295,1.54,1111122 
DISL,ioos:station:DISL:MHPA:1,2011-07-01T15:30:00Z,30.6671,-87.9365,4.358,1.49,1111122 
DISL,ioos:station:DISL:MHPA:1,2011-07-01T16:00:00Z,30.6671,-87.9365,4.491,1.35,1111122 
DISL,ioos:station:DISL:MHPA:1,2011-07-01T16:30:00Z,30.6671,-87.9365,4.617,1.29,1111122 
DISL,ioos:station:DISL:MHPA:1,2011-07-01T17:00:00Z,30.6671,-87.9365,4.654,1.32,1111122 
DISL,ioos:station:DISL:MHPA:1,2011-07-01T17:30:00Z,30.6671,-87.9365,4.632,1.32,1111122 
DISL,ioos:station:DISL:MHPA:1,2011-07-01T18:00:00Z,30.6671,-87.9365,4.627,1.4,1111122 
DISL,ioos:station:DISL:MHPA:1,2011-07-01T18:30:00Z,30.6671,-87.9365,4.679,1.49,1111122 
DISL,ioos:station:DISL:MHPA:1,2011-07-01T19:00:00Z,30.6671,-87.9365,4.639,1.5,1111122 
DISL,ioos:station:DISL:MHPA:1,2011-07-01T19:30:00Z,30.6671,-87.9365,4.622,1.48,1111122 
DISL,ioos:station:DISL:MHPA:1,2011-07-01T20:00:00Z,30.6671,-87.9365,4.574,1.43,1111122 
DISL,ioos:station:DISL:MHPA:1,2011-07-01T20:30:00Z,30.6671,-87.9365,4.538,1.39,1111122 
DISL,ioos:station:DISL:MHPA:1,2011-07-01T21:00:00Z,30.6671,-87.9365,4.524,1.38,1111122 
DISL,ioos:station:DISL:MHPA:1,2011-07-01T21:30:00Z,30.6671,-87.9365,4.432,1.36,1111122 
DISL,ioos:station:DISL:MHPA:1,2011-07-01T22:00:00Z,30.6671,-87.9365,4.242,1.38,1111122 
DISL,ioos:station:DISL:MHPA:1,2011-07-01T22:30:00Z,30.6671,-87.9365,4.094,1.33,1111122 
DISL,ioos:station:DISL:MHPA:1,2011-07-01T23:00:00Z,30.6671,-87.9365,3.939,1.34,1111122 
DISL,ioos:station:DISL:MHPA:1,2011-07-01T23:30:00Z,30.6671,-87.9365,3.76,1.32,1111122 
DISL,ioos:station:DISL:MHPA:1,2011-07-02T00:00:00Z,30.6671,-87.9365,3.585,1.33,1111122 
DISL,ioos:station:DISL:MHPA:1,2011-07-02T00:30:00Z,30.6671,-87.9365,3.449,1.28,1111122 
DISL,ioos:station:DISL:MHPA:1,2011-07-02T01:00:00Z,30.6671,-87.9365,3.32,1.22,1111122 
DISL,ioos:station:DISL:MHPA:1,2011-07-02T01:30:00Z,30.6671,-87.9365,3.185,1.26,1111122 
DISL,ioos:station:DISL:MHPA:1,2011-07-02T02:00:00Z,30.6671,-87.9365,3.065,1.21,1111122 
DISL,ioos:station:DISL:MHPA:1,2011-07-02T02:30:00Z,30.6671,-87.9365,2.974,1.21,1111122 
DISL,ioos:station:DISL:MHPA:1,2011-07-02T03:00:00Z,30.6671,-87.9365,2.896,1.22,1111122 
DISL,ioos:station:DISL:MHPA:1,2011-07-02T03:30:00Z,30.6671,-87.9365,2.837,1.23,1111122 
DISL,ioos:station:DISL:MHPA:1,2011-07-02T04:00:00Z,30.6671,-87.9365,2.805,1.2,1111122 
DISL,ioos:station:DISL:MHPA:1,2011-07-02T04:30:00Z,30.6671,-87.9365,2.757,1.21,1111122 
DISL,ioos:station:DISL:MHPA:1,2011-07-02T05:00:00Z,30.6671,-87.9365,2.692,1.23,1111122 
DISL,ioos:station:DISL:MHPA:1,2011-07-02T05:30:00Z,30.6671,-87.9365,2.66,1.24,1111122 
DISL,ioos:station:DISL:MHPA:1,2011-07-02T06:00:00Z,30.6671,-87.9365,2.648,1.24,1111122 
DISL,ioos:station:DISL:MHPA:1,2011-07-02T06:30:00Z,30.6671,-87.9365,2.666,1.25,1111122 
DISL,ioos:station:DISL:MHPA:1,2011-07-02T07:00:00Z,30.6671,-87.9365,2.73,1.26,1111122 
DISL,ioos:station:DISL:MHPA:1,2011-07-02T07:30:00Z,30.6671,-87.9365,2.805,1.26,1111122 
DISL,ioos:station:DISL:MHPA:1,2011-07-02T08:00:00Z,30.6671,-87.9365,2.872,1.27,1111122 
DISL,ioos:station:DISL:MHPA:1,2011-07-02T08:30:00Z,30.6671,-87.9365,2.948,1.27,1111122 
DISL,ioos:station:DISL:MHPA:1,2011-07-02T09:00:00Z,30.6671,-87.9365,3.048,1.28,1111122 
DISL,ioos:station:DISL:MHPA:1,2011-07-02T09:30:00Z,30.6671,-87.9365,3.158,1.35,1111122 
DISL,ioos:station:DISL:MHPA:1,2011-07-02T10:00:00Z,30.6671,-87.9365,3.264,1.35,1111122 
DISL,ioos:station:DISL:MHPA:1,2011-07-02T10:30:00Z,30.6671,-87.9365,3.367,1.34,1111122 
DISL,ioos:station:DISL:MHPA:1,2011-07-02T11:00:00Z,30.6671,-87.9365,3.449,1.34,1111122 
DISL,ioos:station:DISL:MHPA:1,2011-07-02T11:30:00Z,30.6671,-87.9365,3.46,1.39,1111122 
DISL,ioos:station:DISL:MHPA:1,2011-07-02T12:00:00Z,30.6671,-87.9365,3.501,1.42,1111122 
DISL,ioos:station:DISL:MHPA:1,2011-07-02T12:30:00Z,30.6671,-87.9365,3.551,1.42,1111122 
DISL,ioos:station:DISL:MHPA:1,2011-07-02T13:00:00Z,30.6671,-87.9365,3.581,1.4,1111122 
DISL,ioos:station:DISL:MHPA:1,2011-07-02T13:30:00Z,30.6671,-87.9365,3.674,1.39,1111122 
DISL,ioos:station:DISL:MHPA:1,2011-07-02T14:00:00Z,30.6671,-87.9365,3.841,1.41,1111122 
DISL,ioos:station:DISL:MHPA:1,2011-07-02T14:30:00Z,30.6671,-87.9365,3.987,1.41,1111122 
DISL,ioos:station:DISL:MHPA:1,2011-07-02T15:00:00Z,30.6671,-87.9365,4.082,1.41,1111122 
DISL,ioos:station:DISL:MHPA:1,2011-07-02T15:30:00Z,30.6671,-87.9365,4.213,1.41,1111122 
DISL,ioos:station:DISL:MHPA:1,2011-07-02T16:00:00Z,30.6671,-87.9365,4.337,1.4,1111122 
DISL,ioos:station:DISL:MHPA:1,2011-07-02T16:30:00Z,30.6671,-87.9365,4.468,1.37,1111122 
DISL,ioos:station:DISL:MHPA:1,2011-07-02T17:00:00Z,30.6671,-87.9365,4.522,1.35,1111122 
DISL,ioos:station:DISL:MHPA:1,2011-07-02T17:30:00Z,30.6671,-87.9365,4.559,1.37,1111122 
DISL,ioos:station:DISL:MHPA:1,2011-07-02T18:00:00Z,30.6671,-87.9365,4.674,1.42,1111122 
DISL,ioos:station:DISL:MHPA:1,2011-07-02T18:30:00Z,30.6671,-87.9365,4.811,1.34,1111122 
DISL,ioos:station:DISL:MHPA:1,2011-07-02T19:00:00Z,30.6671,-87.9365,4.842,1.34,1111122 
DISL,ioos:station:DISL:MHPA:1,2011-07-02T19:30:00Z,30.6671,-87.9365,4.748,1.36,1111122 
DISL,ioos:station:DISL:MHPA:1,2011-07-02T20:00:00Z,30.6671,-87.9365,4.597,1.38,1111122 
DISL,ioos:station:DISL:MHPA:1,2011-07-02T20:30:00Z,30.6671,-87.9365,4.479,1.38,1111122 
DISL,ioos:station:DISL:MHPA:1,2011-07-02T21:00:00Z,30.6671,-87.9365,4.385,1.38,1111122 
DISL,ioos:station:DISL:MHPA:1,2011-07-02T21:30:00Z,30.6671,-87.9365,4.263,1.37,1111122 
DISL,ioos:station:DISL:MHPA:1,2011-07-02T22:00:00Z,30.6671,-87.9365,4.082,1.39,1111122 
DISL,ioos:station:DISL:MHPA:1,2011-07-02T22:30:00Z,30.6671,-87.9365,3.953,1.37,1111122 
DISL,ioos:station:DISL:MHPA:1,2011-07-02T23:00:00Z,30.6671,-87.9365,3.82,1.36,1111122 
DISL,ioos:station:DISL:MHPA:1,2011-07-02T23:30:00Z,30.6671,-87.9365,3.708,1.36,1111122 
DISL,ioos:station:DISL:MHPA:1,2011-07-03T00:00:00Z,30.6671,-87.9365,3.573,1.36,1111122 
DISL,ioos:station:DISL:MHPA:1,2011-07-03T00:30:00Z,30.6671,-87.9365,3.415,1.36,1111122 
DISL,ioos:station:DISL:MHPA:1,2011-07-03T01:00:00Z,30.6671,-87.9365,3.291,1.35,1111122 
DISL,ioos:station:DISL:MHPA:1,2011-07-03T01:30:00Z,30.6671,-87.9365,3.189,1.35,1111122 
DISL,ioos:station:DISL:MHPA:1,2011-07-03T02:00:00Z,30.6671,-87.9365,3.092,1.34,1111122 
DISL,ioos:station:DISL:MHPA:1,2011-07-03T02:30:00Z,30.6671,-87.9365,2.983,1.35,1111122 
DISL,ioos:station:DISL:MHPA:1,2011-07-03T03:00:00Z,30.6671,-87.9365,2.886,1.36,1111122 
DISL,ioos:station:DISL:MHPA:1,2011-07-03T03:30:00Z,30.6671,-87.9365,2.793,1.36,1111122 
DISL,ioos:station:DISL:MHPA:1,2011-07-03T04:00:00Z,30.6671,-87.9365,2.71,1.36,1111122 
DISL,ioos:station:DISL:MHPA:1,2011-07-03T04:30:00Z,30.6671,-87.9365,2.656,1.36,1111122 
DISL,ioos:station:DISL:MHPA:1,2011-07-03T05:00:00Z,30.6671,-87.9365,2.657,1.36,1111122 
DISL,ioos:station:DISL:MHPA:1,2011-07-03T05:30:00Z,30.6671,-87.9365,2.672,1.35,1111122 
DISL,ioos:station:DISL:MHPA:1,2011-07-03T06:00:00Z,30.6671,-87.9365,2.654,1.35,1111122 
DISL,ioos:station:DISL:MHPA:1,2011-07-03T06:30:00Z,30.6671,-87.9365,2.619,1.35,1111122 
DISL,ioos:station:DISL:MHPA:1,2011-07-03T07:00:00Z,30.6671,-87.9365,2.658,1.36,1111122 
DISL,ioos:station:DISL:MHPA:1,2011-07-03T07:30:00Z,30.6671,-87.9365,2.741,1.36,1111122 
DISL,ioos:station:DISL:MHPA:1,2011-07-03T08:00:00Z,30.6671,-87.9365,2.858,1.37,1111122 
DISL,ioos:station:DISL:MHPA:1,2011-07-03T08:30:00Z,30.6671,-87.9365,2.994,1.36,1111122 
DISL,ioos:station:DISL:MHPA:1,2011-07-03T09:00:00Z,30.6671,-87.9365,3.087,1.37,1111122 
DISL,ioos:station:DISL:MHPA:1,2011-07-03T09:30:00Z,30.6671,-87.9365,3.174,1.37,1111122 
DISL,ioos:station:DISL:MHPA:1,2011-07-03T10:00:00Z,30.6671,-87.9365,3.297,1.37,1111122 
DISL,ioos:station:DISL:MHPA:1,2011-07-03T10:30:00Z,30.6671,-87.9365,3.41,1.39,1111122 
DISL,ioos:station:DISL:MHPA:1,2011-07-03T11:00:00Z,30.6671,-87.9365,3.478,1.38,1111122 
DISL,ioos:station:DISL:MHPA:1,2011-07-03T11:30:00Z,30.6671,-87.9365,3.565,1.38,1111122 
DISL,ioos:station:DISL:MHPA:1,2011-07-03T12:00:00Z,30.6671,-87.9365,3.673,1.38,1111122 
DISL,ioos:station:DISL:MHPA:1,2011-07-03T12:30:00Z,30.6671,-87.9365,3.746,1.38,1111122 
DISL,ioos:station:DISL:MHPA:1,2011-07-03T13:00:00Z,30.6671,-87.9365,3.858,1.38,1111122 
DISL,ioos:station:DISL:MHPA:1,2011-07-03T13:30:00Z,30.6671,-87.9365,3.927,1.39,1111122 
DISL,ioos:station:DISL:MHPA:1,2011-07-03T14:00:00Z,30.6671,-87.9365,4.01,1.39,1111122 
DISL,ioos:station:DISL:MHPA:1,2011-07-03T14:30:00Z,30.6671,-87.9365,4.129,1.39,1111122 
DISL,ioos:station:DISL:MHPA:1,2011-07-03T15:00:00Z,30.6671,-87.9365,4.222,1.38,1111122 
DISL,ioos:station:DISL:MHPA:1,2011-07-03T15:30:00Z,30.6671,-87.9365,4.309,1.37,1111122 
DISL,ioos:station:DISL:MHPA:1,2011-07-03T16:00:00Z,30.6671,-87.9365,4.466,1.37,1111122 
DISL,ioos:station:DISL:MHPA:1,2011-07-03T16:30:00Z,30.6671,-87.9365,4.614,1.36,1111122 
DISL,ioos:station:DISL:MHPA:1,2011-07-03T17:00:00Z,30.6671,-87.9365,4.703,1.35,1111122 
DISL,ioos:station:DISL:MHPA:1,2011-07-03T17:30:00Z,30.6671,-87.9365,4.808,1.35,1111122 
DISL,ioos:station:DISL:MHPA:1,2011-07-03T18:00:00Z,30.6671,-87.9365,4.874,1.35,1111122 
DISL,ioos:station:DISL:MHPA:1,2011-07-03T18:30:00Z,30.6671,-87.9365,4.931,1.36,1111122 
DISL,ioos:station:DISL:MHPA:1,2011-07-03T19:00:00Z,30.6671,-87.9365,4.933,1.36,1111122 
DISL,ioos:station:DISL:MHPA:1,2011-07-03T19:30:00Z,30.6671,-87.9365,4.928,1.36,1111122 
DISL,ioos:station:DISL:MHPA:1,2011-07-03T20:00:00Z,30.6671,-87.9365,4.863,1.37,1111122 
DISL,ioos:station:DISL:MHPA:1,2011-07-03T20:30:00Z,30.6671,-87.9365,4.829,1.37,1111122 
DISL,ioos:station:DISL:MHPA:1,2011-07-03T21:00:00Z,30.6671,-87.9365,4.777,1.36,1111122 
DISL,ioos:station:DISL:MHPA:1,2011-07-03T21:30:00Z,30.6671,-87.9365,4.686,1.36,1111122 
DISL,ioos:station:DISL:MHPA:1,2011-07-03T22:00:00Z,30.6671,-87.9365,4.568,1.36,1111122 
DISL,ioos:station:DISL:MHPA:1,2011-07-03T22:30:00Z,30.6671,-87.9365,4.445,1.35,1111122 
DISL,ioos:station:DISL:MHPA:1,2011-07-03T23:00:00Z,30.6671,-87.9365,4.297,1.36,1111122 
DISL,ioos:station:DISL:MHPA:1,2011-07-03T23:30:00Z,30.6671,-87.9365,4.151,1.37,1111122 
DISL,ioos:station:DISL:MHPA:1,2011-07-04T00:00:00Z,30.6671,-87.9365,4.002,1.38,1111122 
DISL,ioos:station:DISL:MHPA:1,2011-07-04T00:30:00Z,30.6671,-87.9365,3.861,1.38,1111122 
DISL,ioos:station:DISL:MHPA:1,2011-07-04T01:00:00Z,30.6671,-87.9365,3.725,1.38,1111122 
DISL,ioos:station:DISL:MHPA:1,2011-07-04T01:30:00Z,30.6671,-87.9365,3.587,1.38,1111122 
DISL,ioos:station:DISL:MHPA:1,2011-07-04T02:00:00Z,30.6671,-87.9365,3.469,1.38,1111122 
DISL,ioos:station:DISL:MHPA:1,2011-07-04T02:30:00Z,30.6671,-87.9365,3.367,1.4,1111122 
DISL,ioos:station:DISL:MHPA:1,2011-07-04T03:00:00Z,30.6671,-87.9365,3.266,1.4,1111122 
DISL,ioos:station:DISL:MHPA:1,2011-07-04T03:30:00Z,30.6671,-87.9365,3.163,1.4,1111122 
DISL,ioos:station:DISL:MHPA:1,2011-07-04T04:00:00Z,30.6671,-87.9365,3.075,1.4,1111122 
DISL,ioos:station:DISL:MHPA:1,2011-07-04T04:30:00Z,30.6671,-87.9365,3.011,1.39,1111122 
DISL,ioos:station:DISL:MHPA:1,2011-07-04T05:00:00Z,30.6671,-87.9365,2.956,1.39,1111122 
DISL,ioos:station:DISL:MHPA:1,2011-07-04T05:30:00Z,30.6671,-87.9365,2.899,1.39,1111122 
DISL,ioos:station:DISL:MHPA:1,2011-07-04T06:00:00Z,30.6671,-87.9365,2.877,1.38,1111122 
DISL,ioos:station:DISL:MHPA:1,2011-07-04T06:30:00Z,30.6671,-87.9365,2.893,1.38,1111122 
DISL,ioos:station:DISL:MHPA:1,2011-07-04T07:00:00Z,30.6671,-87.9365,2.871,1.39,1111122 
DISL,ioos:station:DISL:MHPA:1,2011-07-04T07:30:00Z,30.6671,-87.9365,2.848,1.39,1111122 
DISL,ioos:station:DISL:MHPA:1,2011-07-04T08:00:00Z,30.6671,-87.9365,2.915,1.38,1111122 
DISL,ioos:station:DISL:MHPA:1,2011-07-04T08:30:00Z,30.6671,-87.9365,3.025,1.38,1111122 
DISL,ioos:station:DISL:MHPA:1,2011-07-04T09:00:00Z,30.6671,-87.9365,3.133,1.39,1111122 
DISL,ioos:station:DISL:MHPA:1,2011-07-04T09:30:00Z,30.6671,-87.9365,3.272,1.39,1111122 
DISL,ioos:station:DISL:MHPA:1,2011-07-04T10:00:00Z,30.6671,-87.9365,3.43,1.4,1111122 
DISL,ioos:station:DISL:MHPA:1,2011-07-04T10:30:00Z,30.6671,-87.9365,3.566,1.4,1111122 
DISL,ioos:station:DISL:MHPA:1,2011-07-04T11:00:00Z,30.6671,-87.9365,3.657,1.4,1111122 
DISL,ioos:station:DISL:MHPA:1,2011-07-04T11:30:00Z,30.6671,-87.9365,3.728,1.4,1111122 
DISL,ioos:station:DISL:MHPA:1,2011-07-04T12:00:00Z,30.6671,-87.9365,3.764,1.4,1111122 
DISL,ioos:station:DISL:MHPA:1,2011-07-04T12:30:00Z,30.6671,-87.9365,3.809,1.4,1111122 
DISL,ioos:station:DISL:MHPA:1,2011-07-04T13:00:00Z,30.6671,-87.9365,3.862,1.39,1111122 
DISL,ioos:station:DISL:MHPA:1,2011-07-04T13:30:00Z,30.6671,-87.9365,3.938,1.39,1111122 
DISL,ioos:station:DISL:MHPA:1,2011-07-04T14:00:00Z,30.6671,-87.9365,4.016,1.39,1111122 
DISL,ioos:station:DISL:MHPA:1,2011-07-04T14:30:00Z,30.6671,-87.9365,4.11,1.39,1111122 
DISL,ioos:station:DISL:MHPA:1,2011-07-04T15:00:00Z,30.6671,-87.9365,4.215,1.4,1111122 
DISL,ioos:station:DISL:MHPA:1,2011-07-04T15:30:00Z,30.6671,-87.9365,4.296,1.4,1111122 
DISL,ioos:station:DISL:MHPA:1,2011-07-04T16:00:00Z,30.6671,-87.9365,4.38,1.39,1111122 
DISL,ioos:station:DISL:MHPA:1,2011-07-04T16:30:00Z,30.6671,-87.9365,4.459,1.39,1111122 
DISL,ioos:station:DISL:MHPA:1,2011-07-04T17:00:00Z,30.6671,-87.9365,4.502,1.39,1111122 
DISL,ioos:station:DISL:MHPA:1,2011-07-04T17:30:00Z,30.6671,-87.9365,4.547,1.4,1111122 
DISL,ioos:station:DISL:MHPA:1,2011-07-04T18:00:00Z,30.6671,-87.9365,4.619,1.4,1111122 
DISL,ioos:station:DISL:MHPA:1,2011-07-04T18:30:00Z,30.6671,-87.9365,4.603,1.4,1111122 
DISL,ioos:station:DISL:MHPA:1,2011-07-04T19:00:00Z,30.6671,-87.9365,4.605,1.4,1111122 
DISL,ioos:station:DISL:MHPA:1,2011-07-04T19:30:00Z,30.6671,-87.9365,4.648,1.39,1111122 
DISL,ioos:station:DISL:MHPA:1,2011-07-04T20:00:00Z,30.6671,-87.9365,4.635,1.4,1111122 
DISL,ioos:station:DISL:MHPA:1,2011-07-04T20:30:00Z,30.6671,-87.9365,4.639,1.39,1111122 
DISL,ioos:station:DISL:MHPA:1,2011-07-04T21:00:00Z,30.6671,-87.9365,4.587,1.4,1111122 
DISL,ioos:station:DISL:MHPA:1,2011-07-04T21:30:00Z,30.6671,-87.9365,4.537,1.39,1111122 
DISL,ioos:station:DISL:MHPA:1,2011-07-04T22:00:00Z,30.6671,-87.9365,4.504,1.39,1111122 
DISL,ioos:station:DISL:MHPA:1,2011-07-04T22:30:00Z,30.6671,-87.9365,4.44,1.4,1111122 
DISL,ioos:station:DISL:MHPA:1,2011-07-04T23:00:00Z,30.6671,-87.9365,4.349,1.4,1111122 
DISL,ioos:station:DISL:MHPA:1,2011-07-04T23:30:00Z,30.6671,-87.9365,4.214,1.39,1111122 
DISL,ioos:station:DISL:MHPA:1,2011-07-05T00:00:00Z,30.6671,-87.9365,4.078,1.39,1111122 
DISL,ioos:station:DISL:MHPA:1,2011-07-05T00:30:00Z,30.6671,-87.9365,3.922,1.39,1111122 
DISL,ioos:station:DISL:MHPA:1,2011-07-05T01:00:00Z,30.6671,-87.9365,3.771,1.39,1111122 
DISL,ioos:station:DISL:MHPA:1,2011-07-05T01:30:00Z,30.6671,-87.9365,3.636,1.39,1111122 
DISL,ioos:station:DISL:MHPA:1,2011-07-05T02:00:00Z,30.6671,-87.9365,3.534,1.39,1111122 
DISL,ioos:station:DISL:MHPA:1,2011-07-05T02:30:00Z,30.6671,-87.9365,3.42,1.39,1111122 
DISL,ioos:station:DISL:MHPA:1,2011-07-05T03:00:00Z,30.6671,-87.9365,3.289,1.4,1111122 
DISL,ioos:station:DISL:MHPA:1,2011-07-05T03:30:00Z,30.6671,-87.9365,3.161,1.39,1111122 
DISL,ioos:station:DISL:MHPA:1,2011-07-05T04:00:00Z,30.6671,-87.9365,3.088,1.39,1111122 
DISL,ioos:station:DISL:MHPA:1,2011-07-05T04:30:00Z,30.6671,-87.9365,3.061,1.39,1111122 
DISL,ioos:station:DISL:MHPA:1,2011-07-05T05:00:00Z,30.6671,-87.9365,3.033,1.38,1111122 
DISL,ioos:station:DISL:MHPA:1,2011-07-05T05:30:00Z,30.6671,-87.9365,2.988,1.38,1111122 
DISL,ioos:station:DISL:MHPA:1,2011-07-05T06:00:00Z,30.6671,-87.9365,2.985,1.39,1111122 
DISL,ioos:station:DISL:MHPA:1,2011-07-05T06:30:00Z,30.6671,-87.9365,2.956,1.4,1111122 
DISL,ioos:station:DISL:MHPA:1,2011-07-05T07:00:00Z,30.6671,-87.9365,2.948,1.39,1111122 
DISL,ioos:station:DISL:MHPA:1,2011-07-05T07:30:00Z,30.6671,-87.9365,3.036,1.39,1111122 
DISL,ioos:station:DISL:MHPA:1,2011-07-05T08:00:00Z,30.6671,-87.9365,3.105,1.4,1111122 
DISL,ioos:station:DISL:MHPA:1,2011-07-05T08:30:00Z,30.6671,-87.9365,3.171,1.4,1111122 
DISL,ioos:station:DISL:MHPA:1,2011-07-05T09:00:00Z,30.6671,-87.9365,3.316,1.39,1111122 
DISL,ioos:station:DISL:MHPA:1,2011-07-05T09:30:00Z,30.6671,-87.9365,3.438,1.4,1111122 
DISL,ioos:station:DISL:MHPA:1,2011-07-05T10:00:00Z,30.6671,-87.9365,3.551,1.4,1111122 
DISL,ioos:station:DISL:MHPA:1,2011-07-05T10:30:00Z,30.6671,-87.9365,3.655,1.39,1111122 
DISL,ioos:station:DISL:MHPA:1,2011-07-05T11:00:00Z,30.6671,-87.9365,3.747,1.39,1111122 
DISL,ioos:station:DISL:MHPA:1,2011-07-05T11:30:00Z,30.6671,-87.9365,3.815,1.39,1111122 
DISL,ioos:station:DISL:MHPA:1,2011-07-05T12:00:00Z,30.6671,-87.9365,3.845,1.39,1111122 
DISL,ioos:station:DISL:MHPA:1,2011-07-05T12:30:00Z,30.6671,-87.9365,3.863,1.39,1111122 
DISL,ioos:station:DISL:MHPA:1,2011-07-05T13:00:00Z,30.6671,-87.9365,3.902,1.4,1111122 
DISL,ioos:station:DISL:MHPA:1,2011-07-05T13:30:00Z,30.6671,-87.9365,3.904,1.4,1111122 
DISL,ioos:station:DISL:MHPA:1,2011-07-05T14:00:00Z,30.6671,-87.9365,3.88,1.4,1111122 
DISL,ioos:station:DISL:MHPA:1,2011-07-05T14:30:00Z,30.6671,-87.9365,3.97,1.4,1111122 
DISL,ioos:station:DISL:MHPA:1,2011-07-05T15:00:00Z,30.6671,-87.9365,3.967,1.4,1111122 
DISL,ioos:station:DISL:MHPA:1,2011-07-05T15:30:00Z,30.6671,-87.9365,3.989,1.4,1111122 
DISL,ioos:station:DISL:MHPA:1,2011-07-05T16:00:00Z,30.6671,-87.9365,4.061,1.39,1111122 
DISL,ioos:station:DISL:MHPA:1,2011-07-05T16:30:00Z,30.6671,-87.9365,4.078,1.39,1111122 
DISL,ioos:station:DISL:MHPA:1,2011-07-05T17:00:00Z,30.6671,-87.9365,4.22,1.39,1111122 
DISL,ioos:station:DISL:MHPA:1,2011-07-05T17:30:00Z,30.6671,-87.9365,4.287,1.39,1111122 
DISL,ioos:station:DISL:MHPA:1,2011-07-05T18:00:00Z,30.6671,-87.9365,4.329,1.4,1111122 
DISL,ioos:station:DISL:MHPA:1,2011-07-05T18:30:00Z,30.6671,-87.9365,4.385,1.4,1111122 
DISL,ioos:station:DISL:MHPA:1,2011-07-05T19:00:00Z,30.6671,-87.9365,4.44,1.4,1111122 
DISL,ioos:station:DISL:MHPA:1,2011-07-05T19:30:00Z,30.6671,-87.9365,4.56,1.4,1111122 
DISL,ioos:station:DISL:MHPA:1,2011-07-05T20:00:00Z,30.6671,-87.9365,4.615,1.4,1111122 
DISL,ioos:station:DISL:MHPA:1,2011-07-05T20:30:00Z,30.6671,-87.9365,4.647,1.4,1111122 
DISL,ioos:station:DISL:MHPA:1,2011-07-05T21:00:00Z,30.6671,-87.9365,4.663,1.4,1111122 
DISL,ioos:station:DISL:MHPA:1,2011-07-05T21:30:00Z,30.6671,-87.9365,4.684,1.4,1111122 
DISL,ioos:station:DISL:MHPA:1,2011-07-05T22:00:00Z,30.6671,-87.9365,4.646,1.4,1111122 
DISL,ioos:station:DISL:MHPA:1,2011-07-05T22:30:00Z,30.6671,-87.9365,4.639,1.39,1111122 
DISL,ioos:station:DISL:MHPA:1,2011-07-05T23:00:00Z,30.6671,-87.9365,4.587,1.39,1111122 
DISL,ioos:station:DISL:MHPA:1,2011-07-05T23:30:00Z,30.6671,-87.9365,4.373,1.41,1111122 
DISL,ioos:station:DISL:MHPA:1,2011-07-06T00:00:00Z,30.6671,-87.9365,4.048,1.39,1111122 
DISL,ioos:station:DISL:MHPA:1,2011-07-06T00:30:00Z,30.6671,-87.9365,3.896,1.4,1111122 
DISL,ioos:station:DISL:MHPA:1,2011-07-06T01:00:00Z,30.6671,-87.9365,3.738,1.38,1111122 
DISL,ioos:station:DISL:MHPA:1,2011-07-06T01:30:00Z,30.6671,-87.9365,3.631,1.38,1111122 
DISL,ioos:station:DISL:MHPA:1,2011-07-06T02:00:00Z,30.6671,-87.9365,3.519,1.38,1111122 
DISL,ioos:station:DISL:MHPA:1,2011-07-06T02:30:00Z,30.6671,-87.9365,3.368,1.38,1111122 
DISL,ioos:station:DISL:MHPA:1,2011-07-06T03:00:00Z,30.6671,-87.9365,3.386,1.38,1111122 
DISL,ioos:station:DISL:MHPA:1,2011-07-06T03:30:00Z,30.6671,-87.9365,3.501,1.38,1111122 
DISL,ioos:station:DISL:MHPA:1,2011-07-06T04:00:00Z,30.6671,-87.9365,3.397,1.38,1111122 
DISL,ioos:station:DISL:MHPA:1,2011-07-06T04:30:00Z,30.6671,-87.9365,3.297,1.39,1111122 
DISL,ioos:station:DISL:MHPA:1,2011-07-06T05:00:00Z,30.6671,-87.9365,3.19,1.38,1111122 
DISL,ioos:station:DISL:MHPA:1,2011-07-06T05:30:00Z,30.6671,-87.9365,3.082,1.38,1111122 
DISL,ioos:station:DISL:MHPA:1,2011-07-06T06:00:00Z,30.6671,-87.9365,2.991,1.39,1111122 
DISL,ioos:station:DISL:MHPA:1,2011-07-06T06:30:00Z,30.6671,-87.9365,3.05,1.39,1111122 
DISL,ioos:station:DISL:MHPA:1,2011-07-06T07:00:00Z,30.6671,-87.9365,3.163,1.39,1111122 
DISL,ioos:station:DISL:MHPA:1,2011-07-06T07:30:00Z,30.6671,-87.9365,3.314,1.39,1111122 
DISL,ioos:station:DISL:MHPA:1,2011-07-06T08:00:00Z,30.6671,-87.9365,3.532,1.39,1111122 
DISL,ioos:station:DISL:MHPA:1,2011-07-06T08:30:00Z,30.6671,-87.9365,3.675,1.39,1111122 
DISL,ioos:station:DISL:MHPA:1,2011-07-06T09:00:00Z,30.6671,-87.9365,3.77,1.39,1111122 
DISL,ioos:station:DISL:MHPA:1,2011-07-06T09:30:00Z,30.6671,-87.9365,3.804,1.39,1111122 
DISL,ioos:station:DISL:MHPA:1,2011-07-06T10:00:00Z,30.6671,-87.9365,3.844,1.4,1111122 
DISL,ioos:station:DISL:MHPA:1,2011-07-06T10:30:00Z,30.6671,-87.9365,3.904,1.4,1111122 
DISL,ioos:station:DISL:MHPA:1,2011-07-06T11:00:00Z,30.6671,-87.9365,3.892,1.4,1111122 
DISL,ioos:station:DISL:MHPA:1,2011-07-06T11:30:00Z,30.6671,-87.9365,3.909,1.4,1111122 
DISL,ioos:station:DISL:MHPA:1,2011-07-06T12:00:00Z,30.6671,-87.9365,3.938,1.4,1111122 
DISL,ioos:station:DISL:MHPA:1,2011-07-06T12:30:00Z,30.6671,-87.9365,3.942,1.4,1111122 
DISL,ioos:station:DISL:MHPA:1,2011-07-06T13:00:00Z,30.6671,-87.9365,3.97,1.4,1111122 
DISL,ioos:station:DISL:MHPA:1,2011-07-06T13:30:00Z,30.6671,-87.9365,3.964,1.4,1111122 
DISL,ioos:station:DISL:MHPA:1,2011-07-06T14:00:00Z,30.6671,-87.9365,3.937,1.4,1111122 
DISL,ioos:station:DISL:MHPA:1,2011-07-06T14:30:00Z,30.6671,-87.9365,3.959,1.4,1111122 
DISL,ioos:station:DISL:MHPA:1,2011-07-06T15:00:00Z,30.6671,-87.9365,3.937,1.4,1111122 
DISL,ioos:station:DISL:MHPA:1,2011-07-06T15:30:00Z,30.6671,-87.9365,3.914,1.4,1111122 